Powrót do katalogu

STARLINK-3770

AktywnyŁącznośćVLEO
NORAD 52554·PAYLOAD·🇺🇸 United States

Wystrzelony May 13, 2022 z Vandenberg Space Force Base

Loading…

Następne Przeloty (najbliższe 24 godziny)

TLE

ŚwieżeSource: CelesTrak SupGP

Epoka: Sep 14, 2026, 22:01 UTC

1 52554C 22051X   26257.91784722 -.00031376  00000+0 -10090-2 0  2573
2 52554  53.1615 359.7606 0000973  80.3444 101.4967 15.31715880    10

Śledź STARLINK-3770 w czasie rzeczywistym z AllMySat

Download on the App Store